• In India
  • List of Countries
  • For 7 days
  • Water Temperature
  • Satellite Maps
  • Weather Map
  • Weather Widgets
  • user-avatar
    Login

    Hourly Weather Yeghegnadzor

    Today, 16 July, Monday

    Time Temperature Precipitation Wind Pressure Humidity
    00:00 +24°C° 0.1 mm 3 mps 648 mmHg 62%
    01:00 +22°C° 0 mm 3 mps 648 mmHg 65%
    02:00 +21°C° 0 mm 2 mps 648 mmHg 68%
    03:00 +20°C° 0 mm 2 mps 647 mmHg 71%
    04:00 +20°C° 0 mm 2 mps 648 mmHg 69%
    05:00 +21°C° 0 mm 2 mps 648 mmHg 67%
    06:00 +21°C° 0 mm 2 mps 648 mmHg 66%
    07:00 +24°C° 0.1 mm 2 mps 649 mmHg 59%
    08:00 +26°C° 0.1 mm 2 mps 649 mmHg 51%
    09:00 +27°C° 0.1 mm 3 mps 649 mmHg 44%
    10:00 +28°C° 0.2 mm 3 mps 649 mmHg 42%
    11:00 +29°C° 0.2 mm 4 mps 649 mmHg 40%
    12:00 +29°C° 0.2 mm 4 mps 650 mmHg 38%
    13:00 +29°C° 0.1 mm 4 mps 649 mmHg 39%
    14:00 +29°C° 0.1 mm 4 mps 649 mmHg 39%
    15:00 +29°C° 0.1 mm 4 mps 649 mmHg 39%
    16:00 +28°C° 0.3 mm 3 mps 649 mmHg 42%
    17:00 +28°C° 0.3 mm 2 mps 649 mmHg 45%
    18:00 +27°C° 0.3 mm 2 mps 649 mmHg 49%
    19:00 +26°C° 0.1 mm 2 mps 649 mmHg 53%
    20:00 +25°C° 0.1 mm 2 mps 649 mmHg 57%
    21:00 +24°C° 0.1 mm 2 mps 649 mmHg 61%
    22:00 +23°C° 0.1 mm 2 mps 649 mmHg 64%
    23:00 +23°C° 0.1 mm 2 mps 650 mmHg 66%

    Tomorrow, 17 July, Tuesday

    Time Temperature Precipitation Wind Pressure Humidity
    00:00 +21°C° 0.1 mm 2 mps 650 mmHg 69%
    01:00 +21°C° 0.1 mm 2 mps 650 mmHg 70%
    02:00 +20°C° 0.1 mm 2 mps 650 mmHg 72%
    03:00 +20°C° 0.1 mm 2 mps 650 mmHg 73%
    04:00 +20°C° 0 mm 2 mps 650 mmHg 72%
    05:00 +20°C° 0 mm 2 mps 650 mmHg 72%
    06:00 +21°C° 0 mm 2 mps 650 mmHg 71%
    07:00 +23°C° 0.1 mm 2 mps 650 mmHg 63%
    08:00 +25°C° 0.1 mm 2 mps 651 mmHg 55%
    09:00 +27°C° 0.1 mm 2 mps 651 mmHg 47%
    10:00 +28°C° 0.2 mm 3 mps 651 mmHg 44%
    11:00 +29°C° 0.2 mm 3 mps 651 mmHg 41%
    12:00 +30°C° 0.2 mm 3 mps 651 mmHg 38%
    13:00 +30°C° 0.1 mm 3 mps 651 mmHg 37%
    14:00 +31°C° 0.1 mm 3 mps 651 mmHg 36%
    15:00 +31°C° 0.1 mm 3 mps 650 mmHg 35%
    16:00 +30°C° 0.5 mm 3 mps 650 mmHg 41%
    17:00 +29°C° 0.5 mm 2 mps 650 mmHg 47%
    18:00 +27°C° 0.5 mm 2 mps 649 mmHg 53%
    19:00 +26°C° 0.1 mm 2 mps 649 mmHg 59%
    20:00 +25°C° 0.1 mm 2 mps 650 mmHg 64%
    21:00 +22°C° 0.1 mm 3 mps 650 mmHg 69%
    22:00 +22°C° 0 mm 3 mps 650 mmHg 72%
    23:00 +21°C° 0 mm 3 mps 650 mmHg 74%

    Day after tomorrow, 18 July, Wednesday

    Time Temperature Precipitation Wind Pressure Humidity
    00:00 +21°C° 0 mm 3 mps 650 mmHg 77%
    01:00 +20°C° 0 mm 2 mps 650 mmHg 77%
    02:00 +20°C° 0 mm 2 mps 650 mmHg 78%
    03:00 +20°C° 0 mm 2 mps 650 mmHg 79%
    04:00 +20°C° 0 mm 2 mps 650 mmHg 76%
    05:00 +21°C° 0 mm 2 mps 650 mmHg 73%
    06:00 +21°C° 0 mm 2 mps 650 mmHg 70%
    07:00 +24°C° 0 mm 2 mps 650 mmHg 61%
    08:00 +27°C° 0 mm 2 mps 651 mmHg 52%
    09:00 +29°C° 0 mm 2 mps 651 mmHg 43%
    10:00 +30°C° 0 mm 3 mps 651 mmHg 40%
    11:00 +33°C° 0 mm 3 mps 651 mmHg 36%
    12:00 +34°C° 0 mm 4 mps 651 mmHg 33%
    13:00 +34°C° 0 mm 4 mps 651 mmHg 32%
    14:00 +35°C° 0 mm 4 mps 650 mmHg 31%
    15:00 +35°C° 0 mm 4 mps 650 mmHg 29%
    16:00 +35°C° 0.1 mm 3 mps 650 mmHg 31%
    17:00 +35°C° 0.1 mm 3 mps 650 mmHg 33%
    18:00 +34°C° 0.1 mm 2 mps 650 mmHg 35%
    19:00 +31°C° 0 mm 3 mps 650 mmHg 44%
    20:00 +28°C° 0 mm 3 mps 649 mmHg 53%
    21:00 +26°C° 0 mm 3 mps 649 mmHg 61%
    22:00 +25°C° 0 mm 3 mps 649 mmHg 63%
    23:00 +25°C° 0 mm 3 mps 649 mmHg 64%

    19 July, Thursday

    Time Temperature Precipitation Wind Pressure Humidity
    00:00 +24°C° 0 mm 3 mps 649 mmHg 65%
    01:00 +24°C° 0 mm 3 mps 649 mmHg 64%
    02:00 +24°C° 0 mm 2 mps 649 mmHg 62%
    03:00 +23°C° 0 mm 2 mps 649 mmHg 61%
    04:00 +24°C° 0 mm 2 mps 650 mmHg 57%
    05:00 +24°C° 0 mm 2 mps 650 mmHg 54%
    06:00 +25°C° 0 mm 2 mps 650 mmHg 50%
    07:00 +27°C° 0 mm 2 mps 651 mmHg 43%
    08:00 +30°C° 0 mm 2 mps 651 mmHg 36%
    09:00 +32°C° 0 mm 2 mps 652 mmHg 29%
    10:00 +34°C° 0 mm 3 mps 652 mmHg 26%
    11:00 +36°C° 0 mm 4 mps 652 mmHg 24%
    12:00 +37°C° 0 mm 4 mps 652 mmHg 22%
    13:00 +37°C° 0 mm 4 mps 652 mmHg 22%
    14:00 +38°C° 0 mm 4 mps 651 mmHg 22%
    15:00 +38°C° 0 mm 4 mps 651 mmHg 22%
    16:00 +37°C° 0 mm 4 mps 651 mmHg 25%
    17:00 +37°C° 0 mm 3 mps 651 mmHg 28%
    18:00 +36°C° 0 mm 3 mps 650 mmHg 31%
    19:00 +33°C° 0 mm 3 mps 650 mmHg 40%
    20:00 +30°C° 0 mm 3 mps 650 mmHg 50%
    21:00 +27°C° 0 mm 3 mps 650 mmHg 59%
    22:00 +26°C° 0 mm 3 mps 650 mmHg 62%
    23:00 +26°C° 0 mm 3 mps 650 mmHg 64%

    20 July, Friday

    Time Temperature Precipitation Wind Pressure Humidity
    00:00 +25°C° 0 mm 3 mps 650 mmHg 66%
    01:00 +25°C° 0 mm 3 mps 650 mmHg 65%
    02:00 +25°C° 0 mm 2 mps 650 mmHg 63%
    03:00 +24°C° 0 mm 2 mps 650 mmHg 62%
    04:00 +25°C° 0 mm 2 mps 650 mmHg 60%
    05:00 +25°C° 0 mm 2 mps 650 mmHg 58%
    06:00 +26°C° 0 mm 2 mps 651 mmHg 56%
    07:00 +28°C° 0 mm 2 mps 651 mmHg 48%
    08:00 +31°C° 0 mm 2 mps 651 mmHg 41%
    09:00 +34°C° 0 mm 2 mps 652 mmHg 33%
    10:00 +35°C° 0 mm 3 mps 652 mmHg 30%
    11:00 +37°C° 0 mm 3 mps 651 mmHg 27%
    12:00 +38°C° 0 mm 4 mps 651 mmHg 24%
    13:00 +38°C° 0 mm 4 mps 651 mmHg 24%
    14:00 +40°C° 0 mm 4 mps 651 mmHg 23%
    15:00 +40°C° 0 mm 5 mps 650 mmHg 23%
    16:00 +40°C° 0.1 mm 4 mps 650 mmHg 26%
    17:00 +38°C° 0.1 mm 4 mps 650 mmHg 29%
    18:00 +37°C° 0.1 mm 3 mps 649 mmHg 31%
    19:00 +34°C° 0 mm 3 mps 649 mmHg 42%
    20:00 +30°C° 0 mm 3 mps 649 mmHg 52%
    21:00 +28°C° 0 mm 3 mps 649 mmHg 63%
    22:00 +27°C° 0 mm 3 mps 649 mmHg 64%
    23:00 +26°C° 0 mm 3 mps 649 mmHg 65%

    21 July, Saturday

    Time Temperature Precipitation Wind Pressure Humidity
    00:00 +26°C° 0 mm 3 mps 649 mmHg 66%
    01:00 +25°C° 0 mm 3 mps 649 mmHg 66%
    02:00 +25°C° 0 mm 2 mps 649 mmHg 66%
    03:00 +24°C° 0 mm 2 mps 649 mmHg 66%
    04:00 +25°C° 0 mm 2 mps 649 mmHg 64%
    05:00 +25°C° 0 mm 2 mps 649 mmHg 63%
    06:00 +25°C° 0 mm 2 mps 649 mmHg 61%
    07:00 +28°C° 0 mm 2 mps 650 mmHg 53%
    08:00 +30°C° 0 mm 2 mps 650 mmHg 45%
    09:00 +33°C° 0 mm 3 mps 651 mmHg 37%
    10:00 +34°C° 0 mm 3 mps 651 mmHg 33%
    11:00 +35°C° 0 mm 3 mps 651 mmHg 30%
    12:00 +37°C° 0 mm 3 mps 650 mmHg 27%
    13:00 +37°C° 0 mm 3 mps 650 mmHg 27%
    14:00 +37°C° 0 mm 3 mps 650 mmHg 27%
    15:00 +37°C° 0 mm 3 mps 650 mmHg 27%
    16:00 +36°C° 0.1 mm 3 mps 650 mmHg 32%
    17:00 +35°C° 0.1 mm 4 mps 649 mmHg 36%
    18:00 +34°C° 0.1 mm 4 mps 649 mmHg 41%
    19:00 +32°C° 0.3 mm 4 mps 649 mmHg 49%
    20:00 +29°C° 0.3 mm 4 mps 649 mmHg 56%
    21:00 +27°C° 0.3 mm 3 mps 649 mmHg 64%
    22:00 +26°C° 0 mm 3 mps 649 mmHg 66%
    23:00 +25°C° 0 mm 3 mps 649 mmHg 69%
    Show more